#timestamp,LO_Frequency,Hit 
1498564815.1,286044578.2,N
1498564816.0,286044578.2,N
1498564835.8,286044578.7,N
1498564855.7,286044577.5,N
1498564875.5,286044577.9,N
1498564895.3,286044576.2,N
1498564915.2,286044575.8,N
1498564935.0,286044576.3,N
1498564935.9,286044576.3,N
1498564955.8,286044575.9,N
1498564975.6,286044576.0,N
1498564995.4,286044576.0,N
1498565015.3,286044578.6,N
1498565035.1,286044578.5,N
1498565055.8,286044577.7,N
1498565075.7,286044577.3,N
1498565095.5,286044577.3,N
1498565115.3,286044579.5,N
1498565135.2,286044580.2,N
1498565155.0,286044579.6,N
1498565155.9,286044579.6,N
1498565175.8,286044577.7,N
1498565195.6,286044577.2,N
1498565215.4,286044577.4,N
1498565235.3,286044579.1,N
1498565255.1,286044578.8,N
1498565275.9,286044581.9,N
1498565295.7,286044578.8,N
1498565315.5,286044580.1,N
1498565335.4,286044579.3,N
1498565355.2,286044578.9,N
1498565375.0,286044581.4,N
1498565376.0,286044581.4,N
1498565395.8,286044581.5,N
1498565415.6,286044579.0,N
1498565435.5,286044580.3,N
1498565455.3,286044577.2,N
1498565475.1,286044580.3,N
1498565495.9,286044579.4,N
1498565515.7,286044577.4,N
1498565535.6,286044577.5,N
1498565555.4,286044577.4,N
1498565575.2,286044578.3,N
1498565595.1,286044578.2,N
1498565596.0,286044578.2,N
1498565615.8,286044578.6,N
1498565635.6,286044576.4,N
1498565655.5,286044578.7,N
1498565675.3,286044577.8,N
1498565695.2,286044578.0,N
1498565715.9,286044575.7,N
1498565735.7,286044578.6,N
1498565755.6,286044578.2,N
1498565775.4,286044578.7,N
1498565795.2,286044578.4,N
1498565815.1,286044578.1,N
1498565816.0,286044578.1,N
1498565835.8,286044578.6,N
1498565855.7,286044576.0,N
1498565875.5,286044577.5,N
1498565895.3,286044578.5,N
1498565915.2,286044580.0,N
1498565935.0,286044580.0,N
1498565935.9,286044580.0,N
1498565955.7,286044579.2,N
1498565975.6,286044579.0,N
1498565995.4,286044580.2,N
1498566015.3,286044577.6,N
1498566035.1,286044579.9,N
1498566055.8,286044580.0,N
1498566075.7,286044581.4,N
1498566095.5,286044581.6,N
1498566115.4,286044581.8,N
1498566135.2,286044581.5,N
1498566155.0,286044579.4,N
1498566155.9,286044579.4,N
1498566175.8,286044577.4,N
1498566195.6,286044577.7,N
1498566215.5,286044580.8,N
1498566235.3,286044577.2,N
1498566255.1,286044577.4,N
1498566275.9,286044578.8,N
1498566295.7,286044579.4,N
1498566315.6,286044579.9,N
1498566335.4,286044577.4,N
1498566355.2,286044579.6,N
1498566375.1,286044581.9,N
1498566376.0,286044581.9,N
1498566395.8,286044578.9,N
1498566415.6,286044579.5,N
1498566435.5,286044580.1,N
1498566455.3,286044577.7,N
1498566475.2,286044581.7,N
1498566495.9,286044581.3,N
1498566515.7,286044579.7,N
1498566535.6,286044580.0,N
1498566555.4,286044579.7,N
1498566575.3,286044579.0,N
1498566595.1,286044579.4,N
1498566596.0,286044579.4,N
1498566615.8,286044579.6,N
1498566635.7,286044578.1,N
1498566655.5,286044577.7,N
1498566675.3,286044579.8,N
1498566695.2,286044580.0,N
1498566715.0,286044579.3,N
1498566715.9,286044579.3,N
1498566735.8,286044579.8,N
1498566755.6,286044579.4,N
1498566775.4,286044579.4,N
1498566795.3,286044578.9,N
1498566815.1,286044581.5,N
1498566835.9,286044579.1,N
1498566855.7,286044580.0,N
1498566875.5,286044580.1,N
1498566895.4,286044581.9,N
1498566915.2,286044579.0,N
1498566935.0,286044578.9,N
1498566935.9,286044578.9,N
1498566955.8,286044578.8,N
1498566975.6,286044581.3,N
1498566995.5,286044581.2,N
1498567015.3,286044581.5,N
1498567035.1,286044581.4,N
1498567055.9,286044581.1,N
1498567075.7,286044581.7,N
1498567095.5,286044581.6,N
1498567115.4,286044581.6,N
1498567135.2,286044581.6,N
1498567155.1,286044581.4,N
1498567156.0,286044581.4,N
1498567175.8,286044578.8,N
1498567195.6,286044581.6,N
1498567215.5,286044581.5,N
1498567235.3,286044580.8,N
1498567255.1,286044580.6,N
1498567275.9,286044580.5,N
1498567295.7,286044582.8,N
1498567315.6,286044582.1,N
1498567335.4,286044582.9,N
1498567355.2,286044582.8,N
1498567375.1,286044583.2,N
1498567376.0,286044583.2,N
1498567395.8,286044583.0,N
1498567415.6,286044583.4,N
1498567435.5,286044583.0,N
1498567455.3,286044582.9,N
1498567475.2,286044582.3,N
1498567495.9,286044582.6,N
1498567515.7,286044580.5,N
1498567535.6,286044583.2,N
1498567555.4,286044583.3,N
1498567575.2,286044580.4,N
1498567595.1,286044580.7,N
1498567596.0,286044580.7,N
1498567615.8,286044579.4,N
1498567635.7,286044581.0,N
1498567655.5,286044581.6,N
1498567675.3,286044581.0,N
1498567695.2,286044583.0,N
1498567715.0,286044580.5,N
1498567715.9,286044580.5,N
1498567735.8,286044582.6,N
1498567755.6,286044583.2,N
1498567775.4,286044580.9,N
1498567795.3,286044580.6,N
1498567815.1,286044581.4,N
1498567835.8,286044581.4,N
1498567855.7,286044581.2,N
1498567875.5,286044583.0,N
1498567895.4,286044582.6,N
1498567915.2,286044580.8,N
1498567935.0,286044583.5,N
1498567935.9,286044583.5,N
1498567955.8,286044580.4,N
1498567975.6,286044582.8,N
1498567995.4,286044583.1,N
1498568015.3,286044583.4,N
1498568035.1,286044583.3,N
1498568055.9,286044582.2,N
1498568075.7,286044582.8,N
1498568095.5,286044581.7,N
1498568115.4,286044580.6,N
1498568135.2,286044581.2,N
1498568155.0,286044581.5,N
1498568155.9,286044581.5,N
1498568175.8,286044583.4,N
1498568195.6,286044581.8,N
1498568215.5,286044578.8,N
1498568235.3,286044581.2,N
1498568255.1,286044581.6,N
1498568275.9,286044581.7,N
1498568295.7,286044581.2,N
1498568315.5,286044580.4,N
1498568335.4,286044583.4,N
1498568355.2,286044582.6,N
1498568375.0,286044582.4,N
1498568376.0,286044582.4,N
1498568395.8,286044583.4,N
